Regional Weather Roundup
Issued by NWS Cleveland, OH

Home | Current Version | Previous Version | Graphics & Text | Print | Product List | Glossary On
Versions: 1 2 3 4 5 6 7 8 9 10 11 12 13 14 15 16 17 18 19 20 21 22 23 24 25 26 27 28 29 30 31 32 33 34 35 36 37 38 39 40 41 42 43 44 45 46 47 48 49 50
000
ASUS41 KCLE 031310
RWRCLE
OHIO REGIONAL WEATHER ROUNDUP
NATIONAL WEATHER SERVICE CLEVELAND, OH
800 AM EST TUE MAR 03 2015

NOTE: "FAIR" INDICATES FEW OR NO CLOUDS BELOW 12,000 FEET WITH NO
SIGNIFICANT WEATHER AND/OR OBSTRUCTIONS TO VISIBILITY.

OHZ001>008-015>018-024>027-034-035-043-044-031400-
   NORTHWEST OHIO

CITY           SKY/WX    TMP DP  RH WIND       PRES   REMARKS
DEFIANCE       MIX PCPN  24  16  71 SE5       30.11F WCI  18
FINDLAY        FRZ RAIN  26  17  68 SE9       30.12R WCI  17
TOLEDO EXPRESS LGT SNOW  22  15  75 CALM      30.14S
TOLEDO EXEC    MIX PCPN  23  15  71 E6        30.13F WCI  16
LIMA           CLOUDY    27  19  72 SE7       30.09F WCI  19
$$

OHZ009>014-019>023-028>033-038-089-031400-
   NORTHEAST OHIO

CITY           SKY/WX    TMP DP  RH WIND       PRES   REMARKS
CLE-HOPKINS    LGT SNOW  24  14  65 SE10      30.17F WCI  14
CLE-LAKEFRONT  CLOUDY    25  12  58 SE17G23   30.15F WCI  12
CUY CO. ARPT   CLOUDY    25  16  68 SE14      30.15F WCI  13
LORAIN-ELYRIA  CLOUDY    24  13  62 SE12      30.12F WCI  13
ASHTABULA      CLOUDY    19   9  65 SE10      30.18F WCI   7
AKRON-CANTON   CLOUDY    23  13  65 SE13      30.12F WCI  11
WOOSTER        CLOUDY    22  14  71 SE13      30.11F WCI  10
MANSFIELD      CLOUDY    24  14  65 S9        30.14R WCI  14
YOUNGSTOWN     FLURRIES  20  11  68 SE14      30.16F WCI   7
$$

OHZ042-051>053-060>062-070>072-077>081-031400-
  SOUTHWEST OHIO

CITY           SKY/WX    TMP DP  RH WIND       PRES   REMARKS
CINC-COVINGTON CLOUDY    31  20  63 S8        30.08F WCI  23
CINC-LUNKEN    CLOUDY    31  21  66 CALM      30.11S
HAMILTON       CLOUDY    31  20  63 E5        30.10F WCI  26
DAYTON         CLOUDY    28  18  66 SE8       30.10F WCI  20
WRIGHT-PAT AFB CLOUDY    28  17  64 E5        30.11S WCI  23
DAYTON GENERAL CLOUDY    29  19  66 SE7       30.08F WCI  22
WILMINGTON     CLOUDY    27  18  69 SE7       30.09R WCI  19
$$

OHZ036-037-039>041-045>050-054>059-063>069-073>076-082>088-031400-
  CENTRAL AND SOUTHEAST OHIO

CITY           SKY/WX    TMP DP  RH WIND       PRES   REMARKS
COLUMBUS       CLOUDY    27  17  66 E5        30.13R WCI  22
OSU AIRPORT    LGT RAIN  28  18  66 E5        30.12R WCI  23
BOLTON FIELD   CLOUDY    25  18  74 E3        30.13R
RICKENBACK AFB MOCLDY    27  18  67 CALM      30.11S
NEWARK         MIX PCPN  28  17  63 E5        30.11F WCI  23
MARION         MIX PCPN  25  17  72 SE6       30.13R WCI  18
LANCASTER      CLOUDY    27  17  66 S6        30.13F WCI  20
ZANESVILLE     CLOUDY    25  16  68 SE9       30.12F WCI  15
NEW PHILLY     CLOUDY    26  14  60 SE7       30.16F WCI  18
$$


USA.gov is the U.S. government's official web portal to all federal, state and local government web resources and services.